Location: Ellingshausen
(50.5460°N, 10.4723°E)
Time: 00:44:55
(UTC+00:00)

Cosmos 1959 Rocket - Pass Details

Date: 18 January 2026
Orbit: 947 x 996 km, 83.0° (Epoch: 17 February)

Event Time Altitude Azimuth Distance (km) Brightness Sun altitude
Rises 06:18:29 0° 197° (SSW) 3,631 7.6 -8.2°
Reaches altitude 10° 06:21:00 10° 200° (SSW) 2,683 6.9 -7.8°
Maximum altitude 06:27:06 66° 282° (WNW) 1,039 4.5 -6.9°
Drops below altitude 10° 06:33:11 10° 5° (N) 2,682 6.6 -6.0°
Sets 06:35:43 0° 9° (N) 3,630 7.3 -5.7°
